User: anonymous
Location: Mount Kobau Star Party
(49.1167°N, 119.7333°W)
Time: 05:23:37
(UTC-07:00)
Language:

TSX-5 - Orbit

View from above orbital plane
View from above orbital plane
View from above satellite
View from above satellite

Ground track
Ground track

The orbit data is extracted from the following two-line orbital elements,

1 26374U 00030A   14108.88315384  .00023423  00000-0  21356-2 0  2591
2 26374 068.9353 274.6682 0703994 137.5809 009.6293 13.91369058694382
Epoch (UTC): 18 April 2014 21:11:44
Eccentricity: 0.0703994
inclination: 68.9353°
perigee height: 410 km
apogee height: 1438 km
right ascension of ascending node: 274.6682°
argument of perigee: 137.5809°
revolutions per day: 13.91369058
mean anomaly at epoch: 9.6293°
orbit number at epoch: 69438

The dashed part of the orbit path shows where the satellite is in the earth's shadow,  

DLR